Location: Nitra
(0.0000°N, 18.0833°E)
Time: 05:47:03
(UTC+01:00)

NOSS 3-3 (C) - Pass Details

Date: 24 January 2021
Orbit: 810 x 1402 km, 63.4° (Epoch: 01 March)

Event Time Altitude Azimuth Distance (km) Brightness Sun altitude
Rises 19:41:33 0° 199° (SSW) 3,396 7.4 -23.9°
Reaches altitude 10° 19:44:03 10° 197° (SSW) 2,423 6.5 -24.5°
Maximum altitude 19:49:31 72° 113° (ESE) 848 3.5 -25.8°
Enters shadow 19:49:36 72° 105° (ESE) 849 3.4 -25.8°
